欧洲卫星公司-14星 (SES-14)

导读

SES 14卫星是由SES运营的多任务卫星,于2018年1月25日发射,最终定点于地球静止轨道约35000公里高度。卫星既承担C波段和Ku波段通信广播服务,覆盖美洲与大西洋区域,还搭载了NASA的GOLD科学载荷,用于开展电离层与太空气象研究,帮助科学家理解太阳活动对地球空间环境的影响,兼具商业服务与科研探索双重价值。

基本信息
目录编号:
43175
目录名称:
SES 14
国际标识:
2018-012B
轨道中心:
EARTH
卫星名称:
欧洲卫星公司-14星
卫星全名:
欧洲卫星公司-14星 (SES-14)
卫星状态:
在轨 (已飞行3060 天)
发射日期:
2018-01-25 UTC
国别 :
(SES)
星等 :
--
轨道信息
数据来源 国际轨道数据 AOE轨道数据
星历时间 2026-06-09T19:24:01+0800
3天前
查看轨道信息
2026-06-10T14:00:00+0800
2天前
查看轨道信息
半长轴 42165.149km 42165.177km
偏心率 0.0001057 0.0000926
轨道倾角 0.022° 0.024°
近地点辐角 53.899° 50.868°
升交点赤经 31.014° 36.646°
平近点角 296.442° 213.598°
近地点 35782.555km 35783.135km
远地点 35791.469km 35790.945km
周期 1436.118分钟 1436.120分钟
每日圈数 1.002703 1.002702
详细信息
卫星平台:
Eurostar-3000
平衡模式:
三轴稳定
覆盖范围:
大西洋
运营商:
欧洲卫星公司
运营商所在国:
卢森堡
制造商(研发单位):
空客防务与航天公司
制造商所在国:
法国大都会
使用方式:
暂无
卫星简介
欧洲卫星公司:成立于1985年,总部设在卢森堡。该公司通过运营ASTRA、AMERICOM及 NEW SKIES卫星系统为客户提供电视、广播和多媒体直接到户的信息传送服务,是世界第二大卫星运营商。该卫星仍在工作。
2D轨道图
3D轨道图
轨道高度分析图
轨道倾角分析图
轨道综合分析图
查看轨道综合分析图